Regional Weather Roundup
Issued by NWS

Home | Current Version | Previous Version | Text Only | Print | Product List | Glossary On
Versions: 1 2 3 4 5 6 7 8 9 10 11 12 13 14 15 16 17 18 19 20 21 22 23 24 25 26 27 28 29 30 31 32 33 34 35 36 37 38 39 40 41 42 43 44 45 46 47 48 49 50
000
ASHW40 PHFO 232132
RWRHI

WEATHER ROUNDUP FOR HAWAII
NATIONAL WEATHER SERVICE HONOLULU HI
1100 AM HST THU NOV 23 2017

THIS IS AN AUTOMATED REPORT THAT HAS NOT BEEN QUALITY CONTROLLED.

NOTE..."FAIR" INDICATES FEW OR NO CLOUDS BELOW 12,000 FEET WITH NO
SIGNIFICANT WEATHER AND/OR OBSTRUCTIONS TO VISIBILITY.

* - THESE SITES REPORT LIMITED FIELDS
# - BUOY DATA PROVIDED BY PACIFIC ISLANDS OCEAN OBSERVING SYSTEM.

HIZ001>004-232200-
KAUAI-NIIHAU-

CITY           SKY/WX    TMP DP  RH WIND       PRES   REMARKS
LIHUE APT      FAIR      74  62  66 NE23G31   30.16F
PORT ALLEN*      N/A     77 N/A N/A NE15G24     N/A
POIPU*           N/A     75 N/A N/A NE7G18      N/A
PRINCEVILLE*     N/A     72 N/A N/A E8G16       N/A
KOKOLE POINT*  NOT AVBL
MOLOAA DAIRY*    N/A     73  63  68 N3G18       N/A
WAIMEA HTS*    NOT AVBL
PUU OPAE*      NOT AVBL
PUU LUA*       NOT AVBL
MAKAHA RIDGE*    N/A     72  57  60 NE3G12      N/A
$$

HIZ005>011-232200-
OAHU-

CITY           SKY/WX    TMP DP  RH WIND       PRES   REMARKS
HONOLULU       FAIR      79  59  50 N12G21    30.11F
KALAELOA       FAIR      78  61  55 NE16G25   30.11F
KANEOHE MCB    CLOUDY    78  61  55 NE20G28   30.10F
WHEELER FIELD  PTSUNNY   70  64  83 N13G22    30.16F
BELLOWS*         N/A    N/A N/A N/A NE24G30     N/A
KAHUKU*          N/A    N/A N/A N/A NE9G20      N/A
WHEELER*       NOT AVBL
WAIANAE HARBOR NOT AVBL
DILLINGHAM*    NOT AVBL
KAHUKU TRN*      N/A     77  63  61 SW12G23     N/A
KAWAILOA*        N/A     64  61  88 NE8G26      N/A
KII*             N/A     75  61  60 NE21G30     N/A
MAKUA RANGE*     N/A     75  63  64 W18G35      N/A
OAHU FOREST NW NOT AVBL
SCHOFIELD BRK*   N/A     68  61  77 MISG        N/A
SCHOFIELD S*   NOT AVBL
WAIANAE VLY*   NOT AVBL
KUAOKALA*      NOT AVBL
HONOULIUULI*   NOT AVBL
MOKUOLOE IS*   NOT AVBL
PALEHUA*       NOT AVBL
WAIAWA PHB*    NOT AVBL
$$

HIZ012>013-232200-
MOLOKAI-

CITY           SKY/WX    TMP DP  RH WIND       PRES   REMARKS
MOLOKAI AIRPT  FAIR      74  63  68 NE17G29   30.12S
KALAUPAPA      NOT AVBL
MAKAPULAPAI*     N/A     75  66  73 NE18G26     N/A
MOLOKAI 1*     NOT AVBL
PUU ALII*        N/A     56  56 100 NE2G12      N/A
$$

HIZ016-232200-
KAHOOLAWE-

CITY           SKY/WX    TMP DP  RH WIND       PRES   REMARKS
KAHOOLAWE*     NOT AVBL
HAKIOAWA*        N/A     71  65  80 MISG      30.48S
HONOKANAIA*    NOT AVBL
KANELOA*         N/A    N/A N/A N/A NE16G32   30.12F
KEALIALALO*    NOT AVBL
LUA MAKIKA*    NOT AVBL
$$

HIZ014>015-232200-
LANAI-

CITY           SKY/WX    TMP DP  RH WIND       PRES   REMARKS
LANAI CITY     FAIR      72  62  71 NE28G46   30.10F
LANAI 1*       NOT AVBL
$$

HIZ017>028-232200-
MAUI-

CITY           SKY/WX    TMP DP  RH WIND       PRES   REMARKS
KAHULUI        PTSUNNY   75  65  70 NE22G28   30.10F
KAPALUA-W MAUI NOT AVBL
HANA AIRPORT   PTSUNNY   75  68  78 N14       30.14F HAZE
HANA*            N/A     75 N/A N/A NE14G22     N/A
HALEAKALA SUMM   N/A     41  41 100 E20         N/A
MAALAEA BAY*     N/A     77 N/A N/A NE17G30     N/A
HALEAKALA*     NOT AVBL
KAUPO GAP*     NOT AVBL
KULA 1*          N/A     52  51  96 VRB3        N/A
$$

HIZ023>026-232200-
BIG ISLAND OF HAWAII COAST AND LOWER SLOPES-

CITY           SKY/WX    TMP DP  RH WIND       PRES   REMARKS
KAILUA KONA    FAIR      82  58  43 NE20G35   30.03F
HILO           CLOUDY    75  65  70 NE13G20   30.08F
HONOKAA*         N/A     68 N/A N/A VRB1        N/A
KAWAIHAE MWT*    N/A     82 N/A N/A SW9G16      N/A
KAWAIHAE*        N/A     79 N/A N/A W14       30.01F
SOUTH POINT*     N/A     75 N/A N/A N15G25      N/A
UPOLU AIRPORT* NOT AVBL
KAMUELA*       MOCLDY    66  61  82 NE21G33   30.13F
HAKALAU*         N/A     52  51  95 NE9G15      N/A
KALOKO-HONOKO*   N/A     82  63  51 S9        30.01F
PALI 2*          N/A     70  57  64 S22G32      N/A
KEALAKOMO*       N/A     81  63  54 N22G33      N/A
KAUPULEHU*     NOT AVBL
KAPAPALA*        N/A     76  60  57 S3G10       N/A
LOWER KAHUKU*    N/A    N/A N/A N/A SE2G9       N/A
PUHE CS*         N/A     81  59  47 SW3G10      N/A
PUHO CS*         N/A     82  63  51 SW3         N/A
PTA KEAMUKU*     N/A     64  55  72 NE29G39     N/A
WAIKOLOA*      NOT AVBL
$$

HIZ027>028-232200-
BIG ISLAND OF HAWAII INTERIOR AND SUMMMITS-

CITY           SKY/WX    TMP DP  RH WIND       PRES   REMARKS
BRADSHAW FIELD FAIR      62  49  60 SE13G20   30.31F
MK VISITOR CEN   N/A     52  43  71 S10         N/A
MAUNA KEA*       N/A     36   1  23 W2          N/A
MAUNA LOA*       N/A    N/A N/A N/A MISG        N/A
MAUNA LOA 1*   NOT AVBL
PTA KIPUKA*      N/A    N/A N/A N/A SE7G13      N/A
PTA RANGE 17*    N/A     64  48  55 NW9G20      N/A
PTA WEST*        N/A    N/A N/A N/A S3G13       N/A
NENE CABIN*      N/A     55  48  76 SE5G10      N/A
AHUMOA*        NOT AVBL
PTA PORTABLE*  NOT AVBL
PUU MALI*        N/A     50 N/A N/A NE14G20     N/A
$$

HIC003-232200-
NORTHWEST ISLANDS-

CITY           SKY/WX    TMP DP  RH WIND       PRES   REMARKS
MIDWAY ISLAND  MOSUNNY   75  63  64 E17       30.31R
MIDWAY NOS*      N/A     75 N/A N/A MISG      30.30R
FRENCH FRIGATE NOT AVBL
$$

PHZ110>124-180-232200-
BUOY REPORTS

STATION/POSITION TIME  TEMP    WIND        PRES    WAVE   SWELL
                       AIR SEA DIR/SP/G            HT/PER HT/DIR
                 (UTC) (F)     (DEG/KT/KT) (MB)    (FT/S) (FT/D)
BUOY 51001       2110   72 76   50/ 23/ 29 1023.8
BUOY 51101       2050   73 76   50/ 23/ 27 1023.8F  13/13  10/ 10
BUOY 51100       NOT AVBL
BUOY 51002       2110   78 80   60/ 19/ 25 1015.7
BUOY 51003       2050   74 80   80/ 21/ 27 1017.5F  12/15   8/350
BUOY 51004       2110   77 80   60/ 16/ 19 1016.6
WAIMEA BAY#      2102      76                N/A    12/15   8
MOKAPU POINT#    2104      79                N/A    13/14   8/360
LANAI#           NOT AVBL
BARBERS PT 2#    NOT AVBL
PAUWELA#         NOT AVBL
HILO#            2057      79                N/A    18/14  15/360
KANEOHE BAY#     NOT AVBL
KANEOHE BAY 2#   NOT AVBL
HANALEI#         2052      78                N/A    14/13  10/ 10
KAHULUI HARBOR   2100   75 77   40/ 17/ 24 1019.3
HONOLULU HARBOR  2100   74 78   90/  4/ 15 1019.9
PEARL HARBOR#    2100      79                N/A     2/13   2/170
KILO NALU        NOT AVBL
HILO HARBOR      2100   77 77   20/ 20/ 23 1018.2
MOKUOLOE         2036   75 75   50/ 16/ 21 1020.7F
NAWILIWILI       2100   75      30/ 19/ 25 1020.9
WHOTS BUOY       NOT AVBL
BUOY 51028       NOT AVBL
$$

......................KEY........................................
  SKY/WX - SKY CONDITIONS/PRESENT WEATHER
  TMP    - TEMPERATURE IN FAHRENHEIT
  DWPT   - DEWPOINT IN FAHRENHEIT
  RH     - RELATIVE HUMIDITY IN PERCENT
  WIND   - DIRECTION AND SPEED /MPH FOR ISLANDS...KTS FOR BUOYS/
  PRES   - MEAN SEA LEVEL PRESSURE IN INCHES OF HG
  VSB    - VISIBILITY IN MILES
  HX     - HEAT INDEX
  WCI    - WIND CHILL INDEX
  VRB    - VARIABLE WIND DIRECTION
  N/A    - NOT AVAILABLE



USA.gov is the U.S. government's official web portal to all federal, state and local government web resources and services.